STARLINK-36365

Last updated on Thu Mar 05 2026 00:02:08 GMT+0000 (Coordinated Universal Time)

1 67666U 26022U 26063.05071814 .00204261 00000+0 13331-2 0 9993 2 67666 97.2843 96.7852 0001242 111.6840 248.4558 15.75271770 4667
UTC large
Height (km)
Speed (km/s)
/
Latitude / Longitude
Inclination (degrees)
Orbital Period (minutes)
Azimuth
Elevation
Range (km)
Doppler Factor

Next 0 passes for location: London (51.5072 / 0.1276)

Sorry there are no passes over London.